DAL492 KDTW-KSAN

Flight info

Callsign DAL492
Flight time 4h 47m
Altitude 32000
Route MIGGY3 HUBBY GRB RXANN TEYOU PLNDL Q86 TTRUE LUCKI1
Aircraft A321/M-SDE3FGHIRWY/LB1

Departure

Time 2026-04-26 12:53
Airport Detroit Metropolitan Wayne County Airport (KDTW)

Arrival

Time 2026-04-26 17:40
Airport San Diego International Airport (KSAN)
Time Latitude Longitude Altitude Speed Heading
2026-04-26 11:58 42.21402 -83.35461 661 ft 0 kts 119°
2026-04-26 12:43 42.21409 -83.35479 660 ft 4 kts 119°
2026-04-26 12:43 42.21421 -83.35508 660 ft 4 kts 119°
2026-04-26 12:44 42.21434 -83.35538 660 ft 4 kts 119°
2026-04-26 12:44 42.21437 -83.35546 660 ft 0 kts 119°
2026-04-26 12:47 42.21437 -83.35545 660 ft 0 kts 119°
2026-04-26 12:47 42.21442 -83.35525 660 ft 5 kts 23°
2026-04-26 12:48 42.21479 -83.35511 660 ft 7 kts 15°
2026-04-26 12:48 42.21531 -83.35475 660 ft 10 kts 50°
2026-04-26 12:48 42.21542 -83.35375 660 ft 12 kts 99°
2026-04-26 12:48 42.21545 -83.35273 660 ft 10 kts 84°
2026-04-26 12:49 42.21550 -83.35187 660 ft 8 kts 91°
2026-04-26 12:49 42.21525 -83.35111 660 ft 10 kts 138°
2026-04-26 12:49 42.21457 -83.35053 660 ft 13 kts 148°
2026-04-26 12:49 42.21375 -83.34984 660 ft 14 kts 148°
2026-04-26 12:50 42.21293 -83.34924 660 ft 12 kts 173°
2026-04-26 12:50 42.21227 -83.34965 660 ft 10 kts 211°
2026-04-26 12:50 42.21154 -83.35020 660 ft 14 kts 209°
2026-04-26 12:50 42.21061 -83.35090 660 ft 15 kts 208°
2026-04-26 12:51 42.20971 -83.35156 660 ft 14 kts 208°
2026-04-26 12:51 42.20893 -83.35210 660 ft 12 kts 202°
2026-04-26 12:51 42.20827 -83.35190 660 ft 10 kts 125°
2026-04-26 12:51 42.20809 -83.35117 660 ft 8 kts 73°
2026-04-26 12:52 42.20842 -83.35078 660 ft 6 kts 30°
2026-04-26 12:52 42.20968 -83.34982 660 ft 54 kts 28°
2026-04-26 12:52 42.21523 -83.34579 661 ft 125 kts 28°
2026-04-26 12:52 42.22438 -83.33890 818 ft 161 kts 29°
2026-04-26 12:53 42.23384 -83.33164 1558 ft 154 kts 29°
2026-04-26 12:53 42.24289 -83.32467 2217 ft 144 kts 26°
2026-04-26 12:53 42.25301 -83.32200 2361 ft 158 kts 359°
2026-04-26 12:53 42.26463 -83.32329 2482 ft 177 kts 357°
2026-04-26 12:54 42.27744 -83.32482 2671 ft 191 kts 359°
2026-04-26 12:54 42.29113 -83.32599 2920 ft 204 kts
2026-04-26 12:54 42.30561 -83.32701 3161 ft 219 kts 360°
2026-04-26 12:54 42.32141 -83.32826 3405 ft 236 kts 359°
2026-04-26 12:55 42.33835 -83.32974 3726 ft 252 kts 359°
2026-04-26 12:55 42.35620 -83.33131 4233 ft 259 kts 359°
2026-04-26 12:55 42.37428 -83.33281 4852 ft 262 kts 359°
2026-04-26 12:55 42.39256 -83.33427 5477 ft 265 kts 358°
2026-04-26 12:56 42.41108 -83.33579 6090 ft 268 kts 358°
2026-04-26 12:56 42.42984 -83.33734 6703 ft 271 kts 358°
2026-04-26 12:56 42.44872 -83.33888 7313 ft 273 kts 358°
2026-04-26 12:56 42.46775 -83.34044 7916 ft 275 kts 358°
2026-04-26 12:57 42.48684 -83.34387 8484 ft 280 kts 345°
2026-04-26 12:57 42.50389 -83.35671 9023 ft 287 kts 318°
2026-04-26 12:57 42.51688 -83.37744 9606 ft 290 kts 308°
2026-04-26 12:58 42.54061 -83.42244 10560 ft 302 kts 308°
2026-04-26 12:58 42.55343 -83.44538 10740 ft 317 kts 309°
2026-04-26 12:58 42.56746 -83.46950 10914 ft 333 kts 310°
2026-04-26 12:58 42.58220 -83.49456 11085 ft 347 kts 309°
2026-04-26 12:59 42.59752 -83.52077 11253 ft 361 kts 309°
2026-04-26 12:59 42.61316 -83.54815 11433 ft 374 kts 308°
2026-04-26 12:59 42.62893 -83.57655 11847 ft 378 kts 308°
2026-04-26 12:59 42.64470 -83.60517 12363 ft 379 kts 307°
2026-04-26 13:00 42.66055 -83.63380 12854 ft 381 kts 307°
2026-04-26 13:00 42.67663 -83.66261 13318 ft 383 kts 307°
2026-04-26 13:00 42.69282 -83.69150 13782 ft 385 kts 307°
2026-04-26 13:00 42.70906 -83.72056 14238 ft 387 kts 307°
2026-04-26 13:01 42.72532 -83.74982 14677 ft 388 kts 307°
2026-04-26 13:01 42.74163 -83.77922 15107 ft 390 kts 307°
2026-04-26 13:01 42.75804 -83.80878 15536 ft 392 kts 306°
2026-04-26 13:01 42.77434 -83.83809 15954 ft 394 kts 306°
2026-04-26 13:02 42.79219 -83.86648 16358 ft 396 kts 313°
2026-04-26 13:02 42.81176 -83.89301 16754 ft 398 kts 314°
2026-04-26 13:02 42.83184 -83.91916 17144 ft 400 kts 315°
2026-04-26 13:02 42.85216 -83.94535 17520 ft 402 kts 315°
2026-04-26 13:03 42.87241 -83.97176 17894 ft 404 kts 314°
2026-04-26 13:03 42.88582 -83.98950 18139 ft 405 kts 314°
2026-04-26 13:03 42.90593 -84.01638 18489 ft 407 kts 313°
2026-04-26 13:03 42.92623 -84.04359 18771 ft 410 kts 313°
2026-04-26 13:04 42.94671 -84.07092 19085 ft 413 kts 313°
2026-04-26 13:04 42.96737 -84.09834 19411 ft 415 kts 314°
2026-04-26 13:04 42.98812 -84.12584 19739 ft 417 kts 313°
2026-04-26 13:04 43.00892 -84.15348 20068 ft 418 kts 313°
2026-04-26 13:05 43.02980 -84.18134 20385 ft 420 kts 313°
2026-04-26 13:05 43.05071 -84.20933 20698 ft 421 kts 313°
2026-04-26 13:05 43.07175 -84.23747 20996 ft 423 kts 313°
2026-04-26 13:05 43.09284 -84.26567 21281 ft 425 kts 313°
2026-04-26 13:06 43.11397 -84.29395 21573 ft 426 kts 313°
2026-04-26 13:06 43.13522 -84.32244 21856 ft 428 kts 313°
2026-04-26 13:06 43.15649 -84.35100 22127 ft 430 kts 313°
2026-04-26 13:06 43.17788 -84.37976 22389 ft 431 kts 313°
2026-04-26 13:07 43.19936 -84.40864 22653 ft 433 kts 313°
2026-04-26 13:07 43.22089 -84.43762 22915 ft 434 kts 313°
2026-04-26 13:07 43.24274 -84.46557 23162 ft 437 kts 318°
2026-04-26 13:07 43.26710 -84.49081 23412 ft 440 kts 321°
2026-04-26 13:08 43.29207 -84.51520 23651 ft 442 kts 322°
2026-04-26 13:08 43.31733 -84.53938 23879 ft 443 kts 322°
2026-04-26 13:08 43.34265 -84.56371 24118 ft 444 kts 322°
2026-04-26 13:08 43.36786 -84.58830 24351 ft 445 kts 321°
2026-04-26 13:09 43.39311 -84.61321 24588 ft 446 kts 321°
2026-04-26 13:09 43.41830 -84.63816 24818 ft 447 kts 321°
2026-04-26 13:09 43.44369 -84.66321 25042 ft 448 kts 322°
2026-04-26 13:09 43.46913 -84.68822 25250 ft 449 kts 322°
2026-04-26 13:10 43.49460 -84.71322 25455 ft 450 kts 322°
2026-04-26 13:10 43.52014 -84.73836 25661 ft 451 kts 322°
2026-04-26 13:10 43.54571 -84.76363 25852 ft 452 kts 322°
2026-04-26 13:10 43.57123 -84.78887 26116 ft 451 kts 321°
2026-04-26 13:11 43.59671 -84.81410 26387 ft 450 kts 321°
2026-04-26 13:11 43.62210 -84.83925 26684 ft 448 kts 321°
2026-04-26 13:11 43.64741 -84.86435 26945 ft 447 kts 321°
2026-04-26 13:11 43.67225 -84.89012 27200 ft 445 kts 317°
2026-04-26 13:12 43.69394 -84.92027 27431 ft 441 kts 307°
2026-04-26 13:12 43.71086 -84.95532 27654 ft 437 kts 296°
2026-04-26 13:12 43.72283 -84.99384 27876 ft 436 kts 290°
2026-04-26 13:12 43.73321 -85.03310 28141 ft 434 kts 289°
2026-04-26 13:13 43.74321 -85.07181 28364 ft 433 kts 289°
2026-04-26 13:13 43.75363 -85.11093 28589 ft 433 kts 290°
2026-04-26 13:13 43.76443 -85.14979 28803 ft 432 kts 290°
2026-04-26 13:13 43.77539 -85.18848 29030 ft 431 kts 290°
2026-04-26 13:14 43.78626 -85.22708 29267 ft 430 kts 290°
2026-04-26 13:14 43.79695 -85.26571 29503 ft 428 kts 290°
2026-04-26 13:14 43.80746 -85.30426 29719 ft 428 kts 289°
2026-04-26 13:14 43.81794 -85.34279 29915 ft 427 kts 289°
2026-04-26 13:15 43.82845 -85.38127 30126 ft 426 kts 289°
2026-04-26 13:15 43.83844 -85.41776 30336 ft 425 kts 289°
2026-04-26 13:15 43.84943 -85.45781 30533 ft 425 kts 289°
2026-04-26 13:15 43.85985 -85.49597 30715 ft 424 kts 289°
2026-04-26 13:16 43.87027 -85.53427 30888 ft 424 kts 289°
2026-04-26 13:16 43.88063 -85.57236 31103 ft 422 kts 289°
2026-04-26 13:16 43.89097 -85.61047 31278 ft 422 kts 289°
2026-04-26 13:16 43.90117 -85.64812 31442 ft 421 kts 289°
2026-04-26 13:17 43.92174 -85.72419 31773 ft 421 kts 289°
2026-04-26 13:17 43.93198 -85.76218 31972 ft 419 kts 289°
2026-04-26 13:18 43.95238 -85.83790 32234 ft 420 kts 289°
2026-04-26 13:18 43.96260 -85.87594 32236 ft 420 kts 289°
2026-04-26 13:19 43.99311 -85.98994 32240 ft 420 kts 289°
2026-04-26 13:19 44.01337 -86.06600 32242 ft 420 kts 289°
2026-04-26 13:20 44.03348 -86.14165 32244 ft 420 kts 289°
2026-04-26 13:20 44.05367 -86.21781 32251 ft 420 kts 289°
2026-04-26 13:21 44.07378 -86.29400 32281 ft 419 kts 289°
2026-04-26 13:21 44.09382 -86.37011 32274 ft 419 kts 289°
2026-04-26 13:22 44.11366 -86.44569 32277 ft 418 kts 289°
2026-04-26 13:22 44.13365 -86.52211 32280 ft 417 kts 289°
2026-04-26 13:23 44.15332 -86.59754 32274 ft 416 kts 289°
2026-04-26 13:23 44.17301 -86.67334 32243 ft 416 kts 288°
2026-04-26 13:24 44.19266 -86.74911 32238 ft 415 kts 288°
2026-04-26 13:24 44.21217 -86.82467 32228 ft 414 kts 288°
2026-04-26 13:25 44.23161 -86.90025 32225 ft 413 kts 288°
2026-04-26 13:25 44.25098 -86.97574 32205 ft 413 kts 288°
2026-04-26 13:26 44.27024 -87.05105 32225 ft 412 kts 288°
2026-04-26 13:26 44.28944 -87.12638 32243 ft 411 kts 288°
2026-04-26 13:27 44.30852 -87.20144 32256 ft 410 kts 288°
2026-04-26 13:27 44.32757 -87.27669 32222 ft 410 kts 288°
2026-04-26 13:28 44.34652 -87.35173 32233 ft 410 kts 288°
2026-04-26 13:28 44.36530 -87.42635 32239 ft 409 kts 288°
2026-04-26 13:29 44.38411 -87.50134 32228 ft 409 kts 288°
2026-04-26 13:29 44.40284 -87.57625 32259 ft 408 kts 288°
2026-04-26 13:30 44.42153 -87.65128 32226 ft 408 kts 288°
2026-04-26 13:30 44.44016 -87.72629 32202 ft 408 kts 288°
2026-04-26 13:31 44.45876 -87.80137 32187 ft 408 kts 288°
2026-04-26 13:31 44.47733 -87.87660 32181 ft 408 kts 288°
2026-04-26 13:32 44.49581 -87.95177 32178 ft 408 kts 288°
2026-04-26 13:32 44.51425 -88.02705 32183 ft 408 kts 288°
2026-04-26 13:33 44.53263 -88.10216 32232 ft 407 kts 288°
2026-04-26 13:33 44.54984 -88.17711 32259 ft 406 kts 282°
2026-04-26 13:34 44.55300 -88.25621 32236 ft 406 kts 267°
2026-04-26 13:34 44.54792 -88.33468 32239 ft 406 kts 266°
2026-04-26 13:35 44.54319 -88.41351 32262 ft 405 kts 267°
2026-04-26 13:35 44.53922 -88.49232 32268 ft 405 kts 267°
2026-04-26 13:36 44.53486 -88.57101 32256 ft 405 kts 266°
2026-04-26 13:36 44.53032 -88.64978 32254 ft 405 kts 266°
2026-04-26 13:37 44.52589 -88.72822 32273 ft 404 kts 266°
2026-04-26 13:37 44.52141 -88.80653 32274 ft 403 kts 266°
2026-04-26 13:38 44.51684 -88.88470 32242 ft 403 kts 266°
2026-04-26 13:38 44.51225 -88.96231 32209 ft 403 kts 266°
2026-04-26 13:39 44.50760 -89.04055 32188 ft 402 kts 266°
2026-04-26 13:39 44.50289 -89.11856 32212 ft 401 kts 265°
2026-04-26 13:40 44.49812 -89.19657 32184 ft 402 kts 265°
2026-04-26 13:40 44.49332 -89.27442 32219 ft 400 kts 265°
2026-04-26 13:41 44.48847 -89.35219 32212 ft 401 kts 265°
2026-04-26 13:41 44.48356 -89.42995 32198 ft 401 kts 265°
2026-04-26 13:42 44.47863 -89.50722 32192 ft 401 kts 265°
2026-04-26 13:42 44.47361 -89.58505 32188 ft 401 kts 265°
2026-04-26 13:43 44.46855 -89.66269 32190 ft 401 kts 265°
2026-04-26 13:43 44.46342 -89.74046 32196 ft 401 kts 265°
2026-04-26 13:44 44.45826 -89.81818 32201 ft 401 kts 265°
2026-04-26 13:44 44.45304 -89.89583 32206 ft 401 kts 265°
2026-04-26 13:45 44.44775 -89.97349 32210 ft 401 kts 265°
2026-04-26 13:45 44.44241 -90.05118 32211 ft 401 kts 265°
2026-04-26 13:46 44.43705 -90.12887 32210 ft 400 kts 265°
2026-04-26 13:46 44.43167 -90.20585 32194 ft 400 kts 265°
2026-04-26 13:47 44.42618 -90.28335 32169 ft 400 kts 265°
2026-04-26 13:47 44.42066 -90.36082 32151 ft 400 kts 265°
2026-04-26 13:48 44.41508 -90.43810 32189 ft 399 kts 264°
2026-04-26 13:48 44.40946 -90.51542 32153 ft 399 kts 264°
2026-04-26 13:49 44.40477 -90.57944 32149 ft 398 kts 264°
2026-04-26 13:49 44.39907 -90.65648 32156 ft 398 kts 264°
2026-04-26 13:50 44.39235 -90.74597 32128 ft 397 kts 264°
2026-04-26 13:50 44.38751 -90.81030 32133 ft 397 kts 264°
2026-04-26 13:51 44.38173 -90.88663 32099 ft 397 kts 264°
2026-04-26 13:51 44.37583 -90.96324 32135 ft 396 kts 264°
2026-04-26 13:52 44.36990 -91.03981 32110 ft 396 kts 264°
2026-04-26 13:52 44.36392 -91.11640 32105 ft 396 kts 264°
2026-04-26 13:53 44.35790 -91.19292 32143 ft 395 kts 264°
2026-04-26 13:53 44.35183 -91.26928 32124 ft 395 kts 264°
2026-04-26 13:54 44.34571 -91.34564 32117 ft 396 kts 264°
2026-04-26 13:54 44.33953 -91.42210 32113 ft 396 kts 264°
2026-04-26 13:55 44.33122 -91.52389 32071 ft 397 kts 264°
2026-04-26 13:56 44.32079 -91.65003 32072 ft 397 kts 264°
2026-04-26 13:56 44.31440 -91.72675 32073 ft 398 kts 264°
2026-04-26 13:57 44.30790 -91.80363 32101 ft 398 kts 264°
2026-04-26 13:57 44.30138 -91.88043 32127 ft 398 kts 264°
2026-04-26 13:58 44.29482 -91.95705 32151 ft 398 kts 264°
2026-04-26 13:58 44.28818 -92.03395 32163 ft 398 kts 263°
2026-04-26 13:59 44.28150 -92.11066 32161 ft 398 kts 263°
2026-04-26 13:59 44.27484 -92.18679 32166 ft 398 kts 263°
2026-04-26 14:00 44.26123 -92.34004 32164 ft 397 kts 263°
2026-04-26 14:01 44.25438 -92.41639 32142 ft 397 kts 263°
2026-04-26 14:01 44.24747 -92.49263 32156 ft 395 kts 263°
2026-04-26 14:02 44.24055 -92.56872 32147 ft 395 kts 263°
2026-04-26 14:02 44.23359 -92.64464 32131 ft 394 kts 263°
2026-04-26 14:03 44.22663 -92.71973 32148 ft 392 kts 263°
2026-04-26 14:03 44.21961 -92.79515 32130 ft 392 kts 263°
2026-04-26 14:04 44.21255 -92.87041 32108 ft 391 kts 263°
2026-04-26 14:04 44.20546 -92.94550 32113 ft 390 kts 262°
2026-04-26 14:05 44.19831 -93.02048 32093 ft 390 kts 262°
2026-04-26 14:05 44.19113 -93.09531 32059 ft 390 kts 262°
2026-04-26 14:06 44.18392 -93.17007 32066 ft 389 kts 262°
2026-04-26 14:06 44.17665 -93.24481 32063 ft 389 kts 262°
2026-04-26 14:07 44.16935 -93.31946 32062 ft 389 kts 262°
2026-04-26 14:07 44.16198 -93.39408 32065 ft 389 kts 262°
2026-04-26 14:08 44.15459 -93.46872 32076 ft 389 kts 262°
2026-04-26 14:08 44.14713 -93.54331 32100 ft 389 kts 262°
2026-04-26 14:09 44.13962 -93.61782 32136 ft 388 kts 262°
2026-04-26 14:09 44.13209 -93.69225 32144 ft 388 kts 262°
2026-04-26 14:10 44.12450 -93.76670 32154 ft 388 kts 262°
2026-04-26 14:10 44.11692 -93.84058 32143 ft 389 kts 262°
2026-04-26 14:11 44.10534 -93.95250 32089 ft 390 kts 262°
2026-04-26 14:11 44.09755 -94.02708 32077 ft 390 kts 262°
2026-04-26 14:12 44.08971 -94.10173 32071 ft 390 kts 262°
2026-04-26 14:12 44.08185 -94.17620 32070 ft 390 kts 262°
2026-04-26 14:13 44.06990 -94.28823 32116 ft 389 kts 261°
2026-04-26 14:14 44.06198 -94.36207 32132 ft 388 kts 261°
2026-04-26 14:14 44.05396 -94.43635 32141 ft 388 kts 261°
2026-04-26 14:15 44.04589 -94.51046 32135 ft 387 kts 261°
2026-04-26 14:15 44.03780 -94.58444 32123 ft 387 kts 261°
2026-04-26 14:16 44.02968 -94.65826 32128 ft 386 kts 261°
2026-04-26 14:16 44.02150 -94.73202 32086 ft 386 kts 261°
2026-04-26 14:17 44.01327 -94.80586 32050 ft 387 kts 261°
2026-04-26 14:17 44.00500 -94.87975 32056 ft 386 kts 261°
2026-04-26 14:18 43.99121 -94.95096 32046 ft 387 kts 247°
2026-04-26 14:18 43.96186 -95.01412 32049 ft 392 kts 237°
2026-04-26 14:19 43.92882 -95.07478 32047 ft 395 kts 237°
2026-04-26 14:19 43.89650 -95.13668 32047 ft 396 kts 238°
2026-04-26 14:20 43.86437 -95.19887 32073 ft 397 kts 238°
2026-04-26 14:20 43.83185 -95.26079 32128 ft 397 kts 237°
2026-04-26 14:21 43.79931 -95.32267 32132 ft 397 kts 237°
2026-04-26 14:21 43.76687 -95.38445 32133 ft 396 kts 237°
2026-04-26 14:22 43.73441 -95.44601 32102 ft 396 kts 237°
2026-04-26 14:22 43.70195 -95.50749 32068 ft 396 kts 237°
2026-04-26 14:23 43.66940 -95.56899 32042 ft 396 kts 237°
2026-04-26 14:23 43.63681 -95.63044 32038 ft 396 kts 237°
2026-04-26 14:24 43.60438 -95.69147 32036 ft 396 kts 237°
2026-04-26 14:24 43.57166 -95.75290 32043 ft 397 kts 237°
2026-04-26 14:25 43.53899 -95.81409 32056 ft 396 kts 237°
2026-04-26 14:25 43.50625 -95.87527 32064 ft 396 kts 237°
2026-04-26 14:26 43.47353 -95.93640 32073 ft 396 kts 237°
2026-04-26 14:26 43.44131 -95.99645 32083 ft 397 kts 237°
2026-04-26 14:27 43.40792 -96.05845 32101 ft 396 kts 237°
2026-04-26 14:27 43.37519 -96.11916 32098 ft 395 kts 237°
2026-04-26 14:28 43.34243 -96.17981 32074 ft 395 kts 237°
2026-04-26 14:28 43.30957 -96.24047 32046 ft 395 kts 237°
2026-04-26 14:29 43.28026 -96.30341 32016 ft 392 kts 245°
2026-04-26 14:29 43.25586 -96.37085 32012 ft 392 kts 246°
2026-04-26 14:30 43.23191 -96.43742 32009 ft 392 kts 245°
2026-04-26 14:30 43.20720 -96.50421 32015 ft 392 kts 245°
2026-04-26 14:31 43.18261 -96.57087 32034 ft 392 kts 245°
2026-04-26 14:31 43.15804 -96.63759 32049 ft 392 kts 245°
2026-04-26 14:32 43.13341 -96.70422 32062 ft 392 kts 245°
2026-04-26 14:32 43.10874 -96.77076 32075 ft 392 kts 245°
2026-04-26 14:33 43.08402 -96.83727 32089 ft 392 kts 245°
2026-04-26 14:33 43.05921 -96.90388 32089 ft 392 kts 245°
2026-04-26 14:34 43.03442 -96.97030 32088 ft 392 kts 245°
2026-04-26 14:34 43.00966 -97.03645 32083 ft 391 kts 245°
2026-04-26 14:35 42.98487 -97.10255 32060 ft 391 kts 245°
2026-04-26 14:35 42.96021 -97.16813 32016 ft 391 kts 245°
2026-04-26 14:36 42.93531 -97.23416 31989 ft 391 kts 244°
2026-04-26 14:36 42.91036 -97.30025 31987 ft 392 kts 244°
2026-04-26 14:37 42.88959 -97.35516 31997 ft 392 kts 244°
2026-04-26 14:37 42.86452 -97.42119 32027 ft 391 kts 244°
2026-04-26 14:38 42.83952 -97.48697 32064 ft 391 kts 244°
2026-04-26 14:38 42.81457 -97.55241 32079 ft 391 kts 244°
2026-04-26 14:39 42.78939 -97.61837 32077 ft 391 kts 244°
2026-04-26 14:39 42.76424 -97.68407 32051 ft 391 kts 244°
2026-04-26 14:40 42.73970 -97.74798 32008 ft 392 kts 244°
2026-04-26 14:40 42.71395 -97.81492 31989 ft 392 kts 244°
2026-04-26 14:41 42.68868 -97.88057 31987 ft 392 kts 244°
2026-04-26 14:41 42.66334 -97.94613 31990 ft 392 kts 244°
2026-04-26 14:42 42.63794 -98.01166 31998 ft 392 kts 244°
2026-04-26 14:42 42.61254 -98.07707 32020 ft 391 kts 244°
2026-04-26 14:43 42.58714 -98.14240 32030 ft 391 kts 243°
2026-04-26 14:43 42.56165 -98.20778 32043 ft 391 kts 243°
2026-04-26 14:44 42.53613 -98.27304 32062 ft 391 kts 243°
2026-04-26 14:44 42.51064 -98.33812 32075 ft 391 kts 243°
2026-04-26 14:45 42.48521 -98.40289 32077 ft 391 kts 243°
2026-04-26 14:45 42.45962 -98.46795 32072 ft 391 kts 243°
2026-04-26 14:46 42.43398 -98.53297 32075 ft 391 kts 243°
2026-04-26 14:46 42.40827 -98.59798 32071 ft 391 kts 243°
2026-04-26 14:47 42.38258 -98.66286 32062 ft 391 kts 243°
2026-04-26 14:47 42.35684 -98.72768 32055 ft 391 kts 243°
2026-04-26 14:48 42.33104 -98.79250 32051 ft 391 kts 243°
2026-04-26 14:48 42.30524 -98.85719 32041 ft 391 kts 243°
2026-04-26 14:49 42.27937 -98.92193 32038 ft 391 kts 243°
2026-04-26 14:49 42.25363 -98.98619 32035 ft 391 kts 243°
2026-04-26 14:50 42.22773 -99.05067 32036 ft 391 kts 243°
2026-04-26 14:50 42.20178 -99.11517 32035 ft 391 kts 243°
2026-04-26 14:51 42.17577 -99.17968 32000 ft 392 kts 242°
2026-04-26 14:51 42.14966 -99.24427 31957 ft 393 kts 242°
2026-04-26 14:52 42.12348 -99.30894 31959 ft 393 kts 242°
2026-04-26 14:52 42.09722 -99.37359 31974 ft 393 kts 242°
2026-04-26 14:53 42.07091 -99.43825 31971 ft 394 kts 242°
2026-04-26 14:53 42.04457 -99.50287 31959 ft 394 kts 242°
2026-04-26 14:54 42.01833 -99.56714 31982 ft 394 kts 242°
2026-04-26 14:54 41.99185 -99.63170 32002 ft 394 kts 242°
2026-04-26 14:55 41.96536 -99.69625 31974 ft 395 kts 242°
2026-04-26 14:55 41.93879 -99.76091 31977 ft 395 kts 242°
2026-04-26 14:56 41.91216 -99.82548 31978 ft 395 kts 242°
2026-04-26 14:56 41.88549 -99.89002 31983 ft 395 kts 242°
2026-04-26 14:57 41.85878 -99.95454 31993 ft 395 kts 242°
2026-04-26 14:57 41.83223 -100.01851 32003 ft 395 kts 241°
2026-04-26 14:58 41.80543 -100.08296 32013 ft 395 kts 241°
2026-04-26 14:58 41.77863 -100.14727 32023 ft 395 kts 241°
2026-04-26 14:59 41.75181 -100.21150 32012 ft 395 kts 241°
2026-04-26 14:59 41.72486 -100.27584 31973 ft 396 kts 241°
2026-04-26 15:00 41.69788 -100.34014 31960 ft 396 kts 241°
2026-04-26 15:00 41.67088 -100.40438 31946 ft 396 kts 241°
2026-04-26 15:01 41.64398 -100.46827 31925 ft 397 kts 241°
2026-04-26 15:01 41.61681 -100.53261 31933 ft 397 kts 241°
2026-04-26 15:02 41.58961 -100.59687 31948 ft 397 kts 241°
2026-04-26 15:02 41.56243 -100.66100 31961 ft 397 kts 240°
2026-04-26 15:03 41.53511 -100.72523 31977 ft 397 kts 241°
2026-04-26 15:03 41.50781 -100.78940 31966 ft 398 kts 240°
2026-04-26 15:04 41.48057 -100.85320 31941 ft 398 kts 240°
2026-04-26 15:04 41.45315 -100.91730 31939 ft 398 kts 240°
2026-04-26 15:05 41.42570 -100.98134 31939 ft 398 kts 240°
2026-04-26 15:05 41.39816 -101.04543 31906 ft 399 kts 240°
2026-04-26 15:06 41.37056 -101.10960 31920 ft 399 kts 240°
2026-04-26 15:06 41.34294 -101.17362 31934 ft 399 kts 240°
2026-04-26 15:07 41.30140 -101.26960 31949 ft 399 kts 240°
2026-04-26 15:07 41.27372 -101.33347 31954 ft 399 kts 240°
2026-04-26 15:08 41.24595 -101.39735 31961 ft 399 kts 240°
2026-04-26 15:08 41.21821 -101.46105 31984 ft 398 kts 240°
2026-04-26 15:09 41.19040 -101.52480 31984 ft 398 kts 239°
2026-04-26 15:09 41.16276 -101.58796 31944 ft 399 kts 239°
2026-04-26 15:10 41.13936 -101.64131 31908 ft 399 kts 239°
2026-04-26 15:10 41.10688 -101.71533 31895 ft 400 kts 239°
2026-04-26 15:11 41.07880 -101.77912 31895 ft 401 kts 239°
2026-04-26 15:11 41.05064 -101.84294 31894 ft 402 kts 239°
2026-04-26 15:12 41.02238 -101.90693 31923 ft 403 kts 239°
2026-04-26 15:12 40.99406 -101.97087 31979 ft 402 kts 239°
2026-04-26 15:13 40.96589 -102.03431 31977 ft 402 kts 239°
2026-04-26 15:13 40.93751 -102.09813 31947 ft 402 kts 239°
2026-04-26 15:14 40.90911 -102.16183 31904 ft 402 kts 238°
2026-04-26 15:14 40.88064 -102.22555 31886 ft 403 kts 238°
2026-04-26 15:15 40.85209 -102.28932 31879 ft 403 kts 238°
2026-04-26 15:15 40.82389 -102.35221 31921 ft 402 kts 238°
2026-04-26 15:16 40.79501 -102.41648 31945 ft 402 kts 238°
2026-04-26 15:16 40.76666 -102.47943 31968 ft 401 kts 238°
2026-04-26 15:17 40.74277 -102.53237 31966 ft 401 kts 238°
2026-04-26 15:17 40.70955 -102.60583 31960 ft 401 kts 238°
2026-04-26 15:18 40.68091 -102.66901 31942 ft 401 kts 238°
2026-04-26 15:18 40.65223 -102.73218 31899 ft 402 kts 238°
2026-04-26 15:19 40.62345 -102.79543 31879 ft 402 kts 238°
2026-04-26 15:19 40.59465 -102.85857 31875 ft 402 kts 238°
2026-04-26 15:20 40.56599 -102.92131 31876 ft 403 kts 238°
2026-04-26 15:20 40.53694 -102.98474 31889 ft 402 kts 238°
2026-04-26 15:21 40.50820 -103.04740 31878 ft 403 kts 238°
2026-04-26 15:21 40.47920 -103.11046 31879 ft 403 kts 238°
2026-04-26 15:22 40.45016 -103.17350 31905 ft 403 kts 238°
2026-04-26 15:22 40.42107 -103.23652 31923 ft 403 kts 238°
2026-04-26 15:23 40.39188 -103.29959 31895 ft 404 kts 238°
2026-04-26 15:23 40.36268 -103.36260 31899 ft 404 kts 238°
2026-04-26 15:24 40.33341 -103.42561 31904 ft 404 kts 238°
2026-04-26 15:24 40.30411 -103.48858 31909 ft 404 kts 238°
2026-04-26 15:25 40.27976 -103.54077 31915 ft 404 kts 238°
2026-04-26 15:25 40.24566 -103.61380 31926 ft 404 kts 238°
2026-04-26 15:26 40.21623 -103.67660 31933 ft 404 kts 238°
2026-04-26 15:26 40.18679 -103.73936 31940 ft 404 kts 238°
2026-04-26 15:27 40.16235 -103.79136 31945 ft 404 kts 238°
2026-04-26 15:27 40.13287 -103.85395 31941 ft 404 kts 237°
2026-04-26 15:28 40.10333 -103.91655 31942 ft 404 kts 237°
2026-04-26 15:28 40.07376 -103.97913 31941 ft 404 kts 237°
2026-04-26 15:29 40.04478 -104.04027 31930 ft 404 kts 237°
2026-04-26 15:30 39.98489 -104.16627 31919 ft 404 kts 237°
2026-04-26 15:30 39.95538 -104.22815 31912 ft 404 kts 237°
2026-04-26 15:31 39.91090 -104.32132 31921 ft 403 kts 237°
2026-04-26 15:32 39.87138 -104.40380 31900 ft 403 kts 237°
2026-04-26 15:32 39.83667 -104.47608 31918 ft 402 kts 237°
2026-04-26 15:33 39.80695 -104.53778 31898 ft 402 kts 237°
2026-04-26 15:33 39.77728 -104.59928 31888 ft 401 kts 237°
2026-04-26 15:34 39.74777 -104.66038 31855 ft 401 kts 237°
2026-04-26 15:34 39.71810 -104.72163 31852 ft 400 kts 237°
2026-04-26 15:35 39.68839 -104.78286 31819 ft 400 kts 237°
2026-04-26 15:35 39.65870 -104.84395 31832 ft 399 kts 238°
2026-04-26 15:36 39.62905 -104.90489 31821 ft 399 kts 238°
2026-04-26 15:36 39.59931 -104.96581 31839 ft 399 kts 237°
2026-04-26 15:37 39.56960 -105.02658 31858 ft 398 kts 238°
2026-04-26 15:37 39.54010 -105.08680 31844 ft 399 kts 238°
2026-04-26 15:38 39.51035 -105.14741 31843 ft 399 kts 238°
2026-04-26 15:38 39.48052 -105.20804 31845 ft 399 kts 238°
2026-04-26 15:39 39.45072 -105.26855 31860 ft 398 kts 238°
2026-04-26 15:39 39.42594 -105.31878 31862 ft 399 kts 238°
2026-04-26 15:40 39.39099 -105.38944 31874 ft 399 kts 238°
2026-04-26 15:40 39.36113 -105.44976 31884 ft 399 kts 238°
2026-04-26 15:41 39.33119 -105.51005 31894 ft 399 kts 238°
2026-04-26 15:41 39.30121 -105.57031 31938 ft 398 kts 238°
2026-04-26 15:42 39.27133 -105.63029 31955 ft 398 kts 238°
2026-04-26 15:42 39.24139 -105.69032 31959 ft 398 kts 238°
2026-04-26 15:43 39.21138 -105.75031 31991 ft 397 kts 238°
2026-04-26 15:44 39.16659 -105.83961 31973 ft 396 kts 238°
2026-04-26 15:44 39.12168 -105.92889 31961 ft 395 kts 238°
2026-04-26 15:45 39.07679 -106.01800 31922 ft 395 kts 237°
2026-04-26 15:46 39.03194 -106.10671 31857 ft 395 kts 237°
2026-04-26 15:46 39.00700 -106.15586 31845 ft 394 kts 237°
2026-04-26 15:47 38.95715 -106.25399 31868 ft 394 kts 237°
2026-04-26 15:48 38.92728 -106.31280 31899 ft 393 kts 237°
2026-04-26 15:48 38.89729 -106.37157 31900 ft 393 kts 237°
2026-04-26 15:49 38.86734 -106.43011 31939 ft 392 kts 237°
2026-04-26 15:49 38.83740 -106.48867 31922 ft 392 kts 237°
2026-04-26 15:50 38.80744 -106.54713 31917 ft 392 kts 237°
2026-04-26 15:50 38.77749 -106.60544 31911 ft 391 kts 237°
2026-04-26 15:51 38.74753 -106.66356 31882 ft 391 kts 237°
2026-04-26 15:51 38.71755 -106.72179 31858 ft 391 kts 237°
2026-04-26 15:52 38.68752 -106.77987 31850 ft 391 kts 237°
2026-04-26 15:52 38.65770 -106.83754 31840 ft 391 kts 237°
2026-04-26 15:53 38.62760 -106.89558 31849 ft 391 kts 237°
2026-04-26 15:53 38.59757 -106.95345 31899 ft 390 kts 237°
2026-04-26 15:54 38.56748 -107.01122 31884 ft 390 kts 236°
2026-04-26 15:54 38.53745 -107.06893 31877 ft 390 kts 236°
2026-04-26 15:55 38.50726 -107.12677 31864 ft 390 kts 236°
2026-04-26 15:55 38.47710 -107.18441 31859 ft 390 kts 236°
2026-04-26 15:56 38.44691 -107.24203 31857 ft 390 kts 236°
2026-04-26 15:56 38.41671 -107.29959 31856 ft 390 kts 236°
2026-04-26 15:57 38.38670 -107.35671 31900 ft 389 kts 236°
2026-04-26 15:57 38.35651 -107.41399 31893 ft 389 kts 236°
2026-04-26 15:58 38.32622 -107.47139 31877 ft 390 kts 236°
2026-04-26 15:58 38.29600 -107.52861 31881 ft 389 kts 236°
2026-04-26 15:59 38.26582 -107.58565 31910 ft 388 kts 236°
2026-04-26 15:59 38.23561 -107.64260 31895 ft 388 kts 236°
2026-04-26 16:00 38.20540 -107.69942 31892 ft 388 kts 236°
2026-04-26 16:00 38.17521 -107.75620 31856 ft 388 kts 236°
2026-04-26 16:01 38.14514 -107.81254 31869 ft 387 kts 236°
2026-04-26 16:01 38.11475 -107.86944 31872 ft 387 kts 236°
2026-04-26 16:02 38.08474 -107.92557 31858 ft 387 kts 236°
2026-04-26 16:02 38.05443 -107.98210 31861 ft 387 kts 236°
2026-04-26 16:03 38.02411 -108.03862 31863 ft 387 kts 236°
2026-04-26 16:03 37.99375 -108.09507 31871 ft 387 kts 236°
2026-04-26 16:04 37.96335 -108.15147 31877 ft 387 kts 236°
2026-04-26 16:04 37.93314 -108.20743 31883 ft 387 kts 236°
2026-04-26 16:05 37.90292 -108.26341 31902 ft 387 kts 236°
2026-04-26 16:05 37.87241 -108.31975 31945 ft 386 kts 235°
2026-04-26 16:06 37.84202 -108.37577 31942 ft 386 kts 236°
2026-04-26 16:06 37.81157 -108.43184 31939 ft 386 kts 236°
2026-04-26 16:07 37.78113 -108.48771 31937 ft 385 kts 236°
2026-04-26 16:07 37.75079 -108.54341 31927 ft 384 kts 236°
2026-04-26 16:08 37.72061 -108.59871 31886 ft 384 kts 235°
2026-04-26 16:08 37.69023 -108.65424 31946 ft 387 kts 235°
2026-04-26 16:09 37.65926 -108.71076 31919 ft 390 kts 235°
2026-04-26 16:09 37.62878 -108.76631 31868 ft 384 kts 235°
2026-04-26 16:10 37.59830 -108.82172 31876 ft 384 kts 235°
2026-04-26 16:10 37.56785 -108.87702 31880 ft 384 kts 235°
2026-04-26 16:11 37.53738 -108.93228 31882 ft 384 kts 235°
2026-04-26 16:11 37.50684 -108.98757 31848 ft 383 kts 235°
2026-04-26 16:11 37.49170 -109.01493 31996 ft 381 kts 235°
2026-04-26 16:12 37.47638 -109.04261 31961 ft 388 kts 235°
2026-04-26 16:12 37.43516 -109.11698 31847 ft 383 kts 235°
2026-04-26 16:13 37.39956 -109.18107 31863 ft 385 kts 235°
2026-04-26 16:13 37.36887 -109.23616 31870 ft 385 kts 235°
2026-04-26 16:14 37.34311 -109.28238 31871 ft 385 kts 235°
2026-04-26 16:15 37.29719 -109.36465 31876 ft 385 kts 235°
2026-04-26 16:15 37.26637 -109.41962 31877 ft 385 kts 235°
2026-04-26 16:16 37.22012 -109.50211 31884 ft 385 kts 235°
2026-04-26 16:16 37.18930 -109.55698 31895 ft 384 kts 235°
2026-04-26 16:17 37.15851 -109.61165 31888 ft 384 kts 235°
2026-04-26 16:17 37.12775 -109.66624 31890 ft 383 kts 235°
2026-04-26 16:18 37.08237 -109.74654 31882 ft 382 kts 235°
2026-04-26 16:19 37.03559 -109.82915 31885 ft 380 kts 235°
2026-04-26 16:20 36.99002 -109.90947 31872 ft 379 kts 235°
2026-04-26 16:20 36.94426 -109.98983 31847 ft 378 kts 235°
2026-04-26 16:21 36.91379 -110.04330 31837 ft 377 kts 235°
2026-04-26 16:21 36.88329 -110.09665 31798 ft 378 kts 235°
2026-04-26 16:22 36.85272 -110.15012 31797 ft 378 kts 235°
2026-04-26 16:22 36.82206 -110.20367 31796 ft 379 kts 235°
2026-04-26 16:23 36.79132 -110.25722 31819 ft 380 kts 235°
2026-04-26 16:23 36.76057 -110.31072 31875 ft 379 kts 235°
2026-04-26 16:24 36.72987 -110.36406 31879 ft 378 kts 235°
2026-04-26 16:24 36.69923 -110.41722 31880 ft 376 kts 235°
2026-04-26 16:25 36.66886 -110.46975 31850 ft 375 kts 235°
2026-04-26 16:25 36.63840 -110.52250 31807 ft 375 kts 235°
2026-04-26 16:26 36.60790 -110.57513 31783 ft 375 kts 235°
2026-04-26 16:26 36.57741 -110.62770 31781 ft 375 kts 235°
2026-04-26 16:27 36.54677 -110.68041 31778 ft 376 kts 235°
2026-04-26 16:27 36.51607 -110.73315 31780 ft 377 kts 235°
2026-04-26 16:28 36.48520 -110.78613 31780 ft 378 kts 235°
2026-04-26 16:28 36.45430 -110.83906 31817 ft 378 kts 235°
2026-04-26 16:29 36.42337 -110.89200 31814 ft 379 kts 235°
2026-04-26 16:29 36.39226 -110.94511 31832 ft 379 kts 235°
2026-04-26 16:30 36.36124 -110.99796 31848 ft 380 kts 235°
2026-04-26 16:30 36.33001 -111.05114 31817 ft 381 kts 235°
2026-04-26 16:31 36.29880 -111.10420 31816 ft 381 kts 235°
2026-04-26 16:31 36.26777 -111.15686 31813 ft 381 kts 235°
2026-04-26 16:32 36.24151 -111.20135 31795 ft 382 kts 235°
2026-04-26 16:32 36.20508 -111.26309 31802 ft 382 kts 235°
2026-04-26 16:33 36.17363 -111.31619 31820 ft 382 kts 235°
2026-04-26 16:33 36.14217 -111.36924 31833 ft 382 kts 235°
2026-04-26 16:34 36.11060 -111.42242 31831 ft 383 kts 235°
2026-04-26 16:34 36.07897 -111.47559 31830 ft 383 kts 235°
2026-04-26 16:35 36.04738 -111.52861 31866 ft 383 kts 235°
2026-04-26 16:35 36.01599 -111.58128 31871 ft 383 kts 235°
2026-04-26 16:36 35.98433 -111.63420 31887 ft 383 kts 235°
2026-04-26 16:36 35.95276 -111.68693 31937 ft 381 kts 235°
2026-04-26 16:37 35.92107 -111.73989 31940 ft 380 kts 235°
2026-04-26 16:37 35.88989 -111.79184 31904 ft 380 kts 235°
2026-04-26 16:38 35.85842 -111.84418 31861 ft 380 kts 235°
2026-04-26 16:38 35.82884 -111.89793 31860 ft 379 kts 241°
2026-04-26 16:39 35.80323 -111.95479 31860 ft 379 kts 242°
2026-04-26 16:39 35.77773 -112.01192 31858 ft 381 kts 241°
2026-04-26 16:40 35.75184 -112.06885 31870 ft 381 kts 241°
2026-04-26 16:40 35.72607 -112.12553 31925 ft 381 kts 241°
2026-04-26 16:41 35.69957 -112.18202 31955 ft 381 kts 240°
2026-04-26 16:41 35.67287 -112.23832 31954 ft 381 kts 240°
2026-04-26 16:42 35.64644 -112.29465 31956 ft 379 kts 240°
2026-04-26 16:42 35.62005 -112.35069 31957 ft 378 kts 240°
2026-04-26 16:43 35.59387 -112.40620 31935 ft 377 kts 241°
2026-04-26 16:43 35.56794 -112.46207 31892 ft 377 kts 241°
2026-04-26 16:44 35.54195 -112.51796 31873 ft 376 kts 241°
2026-04-26 16:44 35.51589 -112.57367 31872 ft 376 kts 241°
2026-04-26 16:45 35.48987 -112.62924 31881 ft 375 kts 241°
2026-04-26 16:45 35.46389 -112.68464 31916 ft 374 kts 241°
2026-04-26 16:46 35.43791 -112.73998 31902 ft 374 kts 241°
2026-04-26 16:46 35.41193 -112.79528 31896 ft 374 kts 241°
2026-04-26 16:47 35.38593 -112.85043 31939 ft 373 kts 241°
2026-04-26 16:47 35.35995 -112.90547 31916 ft 373 kts 241°
2026-04-26 16:48 35.33394 -112.96050 31946 ft 372 kts 241°
2026-04-26 16:48 35.30798 -113.01534 31930 ft 372 kts 241°
2026-04-26 16:49 35.28202 -113.07014 31886 ft 372 kts 241°
2026-04-26 16:49 35.25599 -113.12494 31863 ft 372 kts 241°
2026-04-26 16:50 35.23008 -113.17936 31866 ft 372 kts 241°
2026-04-26 16:50 35.20401 -113.23414 31866 ft 373 kts 241°
2026-04-26 16:51 35.17787 -113.28896 31886 ft 373 kts 241°
2026-04-26 16:51 35.15170 -113.34368 31892 ft 373 kts 241°
2026-04-26 16:52 35.13420 -113.38026 31898 ft 373 kts 241°
2026-04-26 16:52 35.09939 -113.45288 31942 ft 372 kts 241°
2026-04-26 16:53 35.07323 -113.50733 31942 ft 372 kts 241°
2026-04-26 16:53 35.04727 -113.56133 31943 ft 371 kts 241°
2026-04-26 16:54 35.02122 -113.61542 31939 ft 369 kts 241°
2026-04-26 16:54 34.99517 -113.66939 31939 ft 368 kts 241°
2026-04-26 16:55 34.96918 -113.72318 31928 ft 367 kts 241°
2026-04-26 16:55 34.94327 -113.77672 31903 ft 366 kts 241°
2026-04-26 16:56 34.90455 -113.85660 31874 ft 364 kts 241°
2026-04-26 16:57 34.87876 -113.90970 31894 ft 363 kts 241°
2026-04-26 16:57 34.83913 -113.98808 31906 ft 361 kts 240°
2026-04-26 16:58 34.82141 -114.02235 31912 ft 361 kts 240°
2026-04-26 16:59 34.77258 -114.11704 31853 ft 361 kts 240°
2026-04-26 17:00 34.72366 -114.21156 31849 ft 361 kts 240°
2026-04-26 17:00 34.68352 -114.28894 31914 ft 360 kts 240°
2026-04-26 17:01 34.65681 -114.34035 31936 ft 360 kts 240°
2026-04-26 17:01 34.62921 -114.39089 31933 ft 360 kts 235°
2026-04-26 17:02 34.59643 -114.43697 31936 ft 359 kts 232°
2026-04-26 17:02 34.56330 -114.48203 31903 ft 357 kts 233°
2026-04-26 17:03 34.53060 -114.52730 31861 ft 356 kts 233°
2026-04-26 17:03 34.49799 -114.57239 31843 ft 355 kts 233°
2026-04-26 17:04 34.46533 -114.61740 31846 ft 356 kts 233°
2026-04-26 17:04 34.43276 -114.66222 31849 ft 357 kts 233°
2026-04-26 17:05 34.39986 -114.70742 31851 ft 358 kts 233°
2026-04-26 17:05 34.36684 -114.75278 31851 ft 359 kts 233°
2026-04-26 17:06 34.33371 -114.79818 31884 ft 360 kts 233°
2026-04-26 17:06 34.30055 -114.84350 31929 ft 360 kts 233°
2026-04-26 17:07 34.26732 -114.88888 31904 ft 361 kts 232°
2026-04-26 17:07 34.23462 -114.93348 31908 ft 361 kts 232°
2026-04-26 17:08 34.20063 -114.97978 31907 ft 361 kts 232°
2026-04-26 17:08 34.16730 -115.02515 31905 ft 361 kts 233°
2026-04-26 17:09 34.13949 -115.06295 31881 ft 362 kts 232°
2026-04-26 17:09 34.10047 -115.11582 31885 ft 363 kts 232°
2026-04-26 17:10 34.06696 -115.16125 31904 ft 362 kts 232°
2026-04-26 17:10 34.03343 -115.20663 31942 ft 362 kts 232°
2026-04-26 17:11 33.99988 -115.25196 31946 ft 362 kts 232°
2026-04-26 17:11 33.96645 -115.29716 31981 ft 360 kts 233°
2026-04-26 17:12 33.91684 -115.36449 31978 ft 356 kts 233°
2026-04-26 17:13 33.86790 -115.43068 31929 ft 353 kts 232°
2026-04-26 17:14 33.81902 -115.49662 31897 ft 352 kts 232°
2026-04-26 17:14 33.77006 -115.56263 31898 ft 354 kts 232°
2026-04-26 17:15 33.72060 -115.62911 31913 ft 356 kts 232°
2026-04-26 17:16 33.68749 -115.67344 31795 ft 355 kts 232°
2026-04-26 17:16 33.67083 -115.69541 31530 ft 356 kts 232°
2026-04-26 17:16 33.65406 -115.71743 31148 ft 357 kts 232°
2026-04-26 17:16 33.63739 -115.73936 30633 ft 355 kts 232°
2026-04-26 17:17 33.62118 -115.76139 30115 ft 349 kts 234°
2026-04-26 17:17 33.60684 -115.78468 29575 ft 345 kts 238°
2026-04-26 17:17 33.59323 -115.80835 29030 ft 343 kts 238°
2026-04-26 17:17 33.57981 -115.83210 28494 ft 344 kts 238°
2026-04-26 17:18 33.56633 -115.85581 27962 ft 345 kts 238°
2026-04-26 17:18 33.55263 -115.87962 27400 ft 347 kts 238°
2026-04-26 17:18 33.53879 -115.90349 26867 ft 350 kts 237°
2026-04-26 17:18 33.52486 -115.92747 26338 ft 351 kts 237°
2026-04-26 17:19 33.49700 -115.97553 25381 ft 355 kts 237°
2026-04-26 17:19 33.48286 -115.99995 24926 ft 358 kts 237°
2026-04-26 17:19 33.46865 -116.02449 24461 ft 360 kts 237°
2026-04-26 17:20 33.45433 -116.04919 23987 ft 361 kts 237°
2026-04-26 17:20 33.44486 -116.06549 23672 ft 361 kts 237°
2026-04-26 17:20 33.42570 -116.09845 23029 ft 358 kts 237°
2026-04-26 17:20 33.41146 -116.12292 22552 ft 356 kts 237°
2026-04-26 17:21 33.39735 -116.14719 22077 ft 355 kts 237°
2026-04-26 17:21 33.38331 -116.17133 21601 ft 352 kts 237°
2026-04-26 17:21 33.36936 -116.19527 21131 ft 350 kts 237°
2026-04-26 17:21 33.35547 -116.21906 20662 ft 349 kts 237°
2026-04-26 17:22 33.34003 -116.24139 20190 ft 349 kts 229°
2026-04-26 17:22 33.32121 -116.25980 19720 ft 352 kts 218°
2026-04-26 17:22 33.29957 -116.27383 19252 ft 354 kts 211°
2026-04-26 17:22 33.27730 -116.28631 18780 ft 354 kts 210°
2026-04-26 17:23 33.25501 -116.29851 18306 ft 351 kts 210°
2026-04-26 17:23 33.23302 -116.31089 17831 ft 349 kts 211°
2026-04-26 17:23 33.21132 -116.32355 17367 ft 346 kts 212°
2026-04-26 17:23 33.18985 -116.33631 16896 ft 344 kts 212°
2026-04-26 17:24 33.16834 -116.34907 16415 ft 342 kts 212°
2026-04-26 17:24 33.14701 -116.36160 15946 ft 341 kts 212°
2026-04-26 17:24 33.12615 -116.37378 15614 ft 333 kts 212°
2026-04-26 17:24 33.10570 -116.38561 15468 ft 319 kts 212°
2026-04-26 17:25 33.08604 -116.39702 15166 ft 311 kts 212°
2026-04-26 17:25 33.06666 -116.40839 14622 ft 311 kts 212°
2026-04-26 17:25 33.05356 -116.41610 14352 ft 309 kts 212°
2026-04-26 17:25 33.02820 -116.43091 13886 ft 304 kts 212°
2026-04-26 17:26 33.00935 -116.44211 13538 ft 299 kts 216°
2026-04-26 17:26 32.99260 -116.45617 13158 ft 292 kts 224°
2026-04-26 17:26 32.97715 -116.47168 12780 ft 289 kts 226°
2026-04-26 17:26 32.96210 -116.48744 12401 ft 287 kts 227°
2026-04-26 17:27 32.94712 -116.50306 12023 ft 285 kts 226°
2026-04-26 17:27 32.93211 -116.51841 11646 ft 284 kts 226°
2026-04-26 17:27 32.91721 -116.53340 11426 ft 275 kts 225°
2026-04-26 17:27 32.90281 -116.54777 11148 ft 268 kts 225°
2026-04-26 17:28 32.88867 -116.56199 10793 ft 265 kts 225°
2026-04-26 17:28 32.87484 -116.57594 10465 ft 263 kts 225°
2026-04-26 17:28 32.86095 -116.58992 10145 ft 260 kts 225°
2026-04-26 17:28 32.84718 -116.60382 9804 ft 259 kts 225°
2026-04-26 17:29 32.83347 -116.61763 9458 ft 258 kts 224°
2026-04-26 17:29 32.82426 -116.62690 9228 ft 257 kts 224°
2026-04-26 17:29 32.80622 -116.64509 8780 ft 255 kts 224°
2026-04-26 17:29 32.79274 -116.65866 8448 ft 253 kts 224°
2026-04-26 17:30 32.77937 -116.67224 8113 ft 251 kts 226°
2026-04-26 17:30 32.76833 -116.68802 7717 ft 248 kts 240°
2026-04-26 17:30 32.75977 -116.70595 7120 ft 253 kts 244°
2026-04-26 17:30 32.75168 -116.72448 6789 ft 249 kts 244°
2026-04-26 17:31 32.74369 -116.74213 6651 ft 236 kts 243°
2026-04-26 17:31 32.73575 -116.75863 6472 ft 226 kts 242°
2026-04-26 17:31 32.72809 -116.77442 6304 ft 215 kts 242°
2026-04-26 17:31 32.72092 -116.78958 6105 ft 208 kts 243°
2026-04-26 17:32 32.71384 -116.80469 5978 ft 211 kts 243°
2026-04-26 17:32 32.70691 -116.82010 5979 ft 211 kts 247°
2026-04-26 17:32 32.70139 -116.83620 5861 ft 210 kts 251°
2026-04-26 17:32 32.69663 -116.85250 5590 ft 207 kts 252°
2026-04-26 17:33 32.69190 -116.86845 5229 ft 207 kts 251°
2026-04-26 17:33 32.68695 -116.88432 4984 ft 200 kts 251°
2026-04-26 17:33 32.68224 -116.89973 4689 ft 194 kts 252°
2026-04-26 17:34 32.67387 -116.92932 4050 ft 185 kts 256°
2026-04-26 17:34 32.67334 -116.94381 3796 ft 170 kts 278°
2026-04-26 17:34 32.67646 -116.95665 3595 ft 153 kts 286°
2026-04-26 17:34 32.67962 -116.96827 3589 ft 143 kts 285°
2026-04-26 17:35 32.68241 -116.97956 3512 ft 142 kts 284°
2026-04-26 17:35 32.68512 -116.99078 3286 ft 141 kts 284°
2026-04-26 17:35 32.68788 -117.00194 3060 ft 140 kts 284°
2026-04-26 17:35 32.69060 -117.01307 2963 ft 140 kts 284°
2026-04-26 17:36 32.69331 -117.02422 2972 ft 141 kts 284°
2026-04-26 17:36 32.69603 -117.03537 2981 ft 141 kts 284°
2026-04-26 17:36 32.69875 -117.04656 2884 ft 141 kts 284°
2026-04-26 17:36 32.70146 -117.05768 2646 ft 139 kts 285°
2026-04-26 17:37 32.70416 -117.06866 2411 ft 139 kts 285°
2026-04-26 17:37 32.70685 -117.07966 2178 ft 138 kts 285°
2026-04-26 17:37 32.70949 -117.09060 1947 ft 138 kts 285°
2026-04-26 17:38 32.71477 -117.11227 1495 ft 137 kts 288°
2026-04-26 17:38 32.71749 -117.12313 1264 ft 137 kts 288°
2026-04-26 17:38 32.72017 -117.13411 1036 ft 136 kts 287°
2026-04-26 17:38 32.72278 -117.14478 798 ft 136 kts 288°
2026-04-26 17:39 32.72544 -117.15567 550 ft 135 kts 288°
2026-04-26 17:39 32.72792 -117.16629 308 ft 135 kts 287°
2026-04-26 17:39 32.73052 -117.17700 65 ft 134 kts 288°
2026-04-26 17:39 32.73291 -117.18681 30 ft 104 kts 286°
2026-04-26 17:40 32.73403 -117.19141 30 ft 12 kts 283°
2026-04-26 17:40 32.73410 -117.19175 30 ft 13 kts 284°
2026-04-26 17:40 32.73446 -117.19394 30 ft 17 kts 258°
2026-04-26 17:40 32.73417 -117.19510 30 ft 12 kts 249°
2026-04-26 17:41 32.73397 -117.19614 30 ft 14 kts 271°
2026-04-26 17:41 32.73430 -117.19730 30 ft 15 kts 287°
2026-04-26 17:41 32.73462 -117.19851 30 ft 16 kts 287°
2026-04-26 17:41 32.73496 -117.19978 30 ft 16 kts 288°
2026-04-26 17:42 32.73531 -117.20109 30 ft 17 kts 285°
2026-04-26 17:42 32.73528 -117.20224 30 ft 14 kts 216°
2026-04-26 17:42 32.73441 -117.20262 30 ft 12 kts 195°
2026-04-26 17:42 32.73366 -117.20279 30 ft 11 kts 190°
2026-04-26 17:43 32.73338 -117.20309 30 ft 4 kts 260°
2026-04-26 17:43 32.73336 -117.20335 30 ft 0 kts 267°